[[{"header":{"parameterUnit":"m.s-1","parameterCategory":1,"la1":30.2991,"la2":30.254,"lo1":-89.0895,"lo2":-89.0444,"dy":0.0017,"dx":0.0017,"nx":28,"ny":28,"refTime":"2025-06-22T09:00:00:Z","depth":0,"parameterNumber":2,"parameterNumberName":"U-component_of_WINDS"},"data":[0,0,0,0,0,0,0,0,0,0,0,0,0,0,0,0,0,0,0,0,0,0,0,0,0,0,0,0,0,0,0,0,0,0,0,0,0,0,0,0,0,0,0,0,0,0,0,0,0,0,0,0,0,0,0,0,0,0,-0.4834,-0.4834,0,-0.4859,-0.4859,-0.4859,-0.485,-0.4849,-0.4849,-0.4848,-0.4875,-0.4876,-0.4877,0,0,0,0,0,0,0,0,0,0,0,0,0,-0.4781,-0.4782,-0.4834,-0.4834,-0.4835,-0.4859,-0.4859,-0.4859,-0.485,-0.4849,-0.4848,-0.4848,-0.4874,-0.4876,-0.4877,0,0,0,0,0,0,0,0,0,0,0,0,0,-0.4805,-0.4782,-0.4834,-0.4833,-0.4833,-0.4858,-0.4859,-0.4859,-0.485,-0.4849,-0.4848,-0.4847,-0.4874,-0.4875,-0.4877,-0.4906,0,0,-0.4883,-0.4884,0,0,0,0,0,0,0,0,-0.4803,-0.4807,-0.4833,-0.4833,-0.4833,-0.485,-0.485,-0.4875,-0.485,-0.4844,-0.4848,-0.4847,-0.4867,-0.487,-0.4876,-0.4907,-0.4908,-0.4883,-0.4884,-0.4885,-0.4886,0,0,0,0,0,0,0,-0.4802,-0.4806,-0.4844,-0.4833,-0.4833,-0.4832,-0.4834,-0.4855,-0.486,-0.4844,-0.4843,-0.4846,-0.4867,-0.4874,-0.4877,-0.4909,-0.4883,-0.4885,-0.4886,-0.4887,-0.4965,-0.4966,0,0,0,0,0,0,-0.48,-0.4804,-0.4843,-0.4845,-0.4816,-0.4833,-0.4836,-0.4846,-0.486,-0.4861,-0.4847,-0.4846,-0.4872,-0.4874,-0.4878,-0.4913,-0.4885,-0.4887,-0.4888,-0.4964,-0.4966,-0.4967,0,0,0,0,0,0,-0.4799,-0.4803,-0.4842,-0.4824,-0.4829,-0.4835,-0.4846,-0.4847,-0.4854,-0.4862,-0.4863,-0.4853,-0.4871,-0.4875,-0.4899,-0.4914,-0.4888,-0.4889,-0.4963,-0.4965,-0.4966,-0.4983,0,0,0,0,0,0,-0.4797,-0.4803,-0.4814,-0.4825,-0.483,-0.4863,-0.4847,-0.4848,-0.4857,-0.4855,-0.4868,-0.4869,-0.4871,-0.4896,-0.4901,-0.4916,-0.4891,-0.4962,-0.4964,-0.4966,-0.4982,-0.4985,-0.4988,0,0,0,0,0,-0.4795,-0.4817,-0.4814,-0.4819,-0.4843,-0.4864,-0.4867,-0.4867,-0.4858,-0.4869,-0.4874,-0.4869,-0.4911,-0.4899,-0.4904,-0.492,-0.4961,-0.4963,-0.4966,-0.498,-0.4985,-0.4988,0,0,0,0,0,0,-0.4809,-0.4819,-0.4815,-0.4842,-0.4852,-0.4862,-0.4876,-0.4872,-0.4886,-0.4884,-0.4884,-0.4887,-0.4912,-0.4918,-0.4904,-0.4949,-0.4935,-0.4938,-0.4944,-0.4948,-0.4952,-0.4951,-0.4892,0,0,0,0,0,-0.4814,-0.483,-0.4838,-0.486,-0.4866,-0.487,-0.4879,-0.4878,-0.4889,-0.4894,-0.4901,-0.4912,-0.4928,-0.4938,-0.4953,-0.4982,-0.4985,-0.4995,-0.4999,-0.5001,-0.5005,-0.5022,-0.5027,-0.4974,-0.4974,-0.4974,0,0,-0.4827,-0.4835,-0.4844,-0.4863,-0.4871,-0.4888,-0.4874,-0.4891,-0.4904,-0.4896,-0.492,-0.4925,-0.4938,-0.4965,-0.4977,-0.4971,-0.502,-0.5004,-0.5006,-0.5008,-0.5024,-0.5029,-0.5034,-0.4975,-0.4975,-0.4975,0,0,-0.4859,-0.4865,-0.4885,-0.4893,-0.4905,-0.4908,-0.4913,-0.4923,-0.4927,-0.495,-0.4945,-0.496,-0.4987,-0.4996,-0.5005,-0.504,-0.5036,-0.5045,-0.5063,-0.508,-0.5084,-0.5088,-0.5101,-0.5106,-0.5048,-0.5048,-0.5048,0,-0.4873,-0.4897,-0.4896,-0.4915,-0.4924,-0.4917,-0.4938,-0.4945,-0.4962,-0.4969,-0.4961,-0.4995,-0.5003,-0.5032,-0.5041,-0.5047,-0.5054,-0.5044,-0.5083,-0.5087,-0.509,-0.5104,-0.5109,-0.5049,-0.5049,-0.5048,-0.5048,0,-0.4915,-0.4932,-0.4946,-0.4962,-0.4973,-0.4992,-0.4995,-0.5006,-0.5004,-0.5008,-0.5032,-0.5041,-0.5058,-0.5065,-0.5064,-0.5095,-0.509,-0.5083,-0.5069,-0.5097,-0.5109,-0.5114,-0.505,-0.505,-0.505,-0.5049,0,0,-0.4957,-0.4971,-0.4977,-0.4984,-0.4997,-0.501,-0.5029,-0.5046,-0.5056,-0.5067,-0.5084,-0.5107,-0.51,-0.511,-0.5109,-0.5123,-0.5152,-0.5114,-0.5115,-0.5122,-0.5189,-0.5195,-0.5201,-0.5149,-0.515,-0.5151,-0.5188,0,-0.4991,-0.5024,-0.5024,-0.5055,-0.5072,-0.5065,-0.5082,-0.5092,-0.5096,-0.5111,-0.5115,-0.5132,-0.5121,-0.5127,-0.514,-0.5146,-0.5166,-0.5143,-0.5166,-0.5167,-0.5165,-0.5208,-0.5215,-0.525,-0.5193,-0.5194,-0.5194,0,-0.5035,-0.5047,-0.508,-0.5091,-0.5098,-0.5113,-0.5129,-0.5142,-0.5153,-0.5155,-0.5166,-0.5163,-0.5184,-0.5169,-0.5197,-0.5182,-0.5191,-0.5195,-0.5197,-0.52,-0.5183,-0.5214,-0.526,-0.5266,-0.5202,-0.5201,-0.5201,0,-0.5064,-0.5089,-0.5112,-0.5118,-0.5131,-0.5142,-0.5148,-0.5158,-0.5168,-0.5182,-0.5189,-0.5204,-0.5213,-0.5225,-0.5228,-0.5216,-0.5257,-0.5242,-0.526,-0.526,-0.5271,-0.527,-0.5321,-0.5274,-0.5274,-0.5274,-0.5274,0,-0.5102,-0.5123,-0.5125,-0.514,-0.5164,-0.5163,-0.5186,-0.5191,-0.52,-0.5216,-0.5211,-0.5227,-0.5228,-0.5243,-0.5245,-0.527,-0.5273,-0.5276,-0.5277,-0.5278,-0.5277,-0.5285,-0.5283,-0.5275,-0.5275,-0.5275,-0.5274,0,-0.514,-0.5142,-0.5167,-0.5177,-0.5179,-0.5197,-0.5205,-0.522,-0.5222,-0.5243,-0.5248,-0.5253,-0.5271,-0.5274,-0.5295,-0.5297,-0.5326,-0.5324,-0.5323,-0.5323,-0.5342,-0.5341,-0.5401,-0.5409,-0.5355,-0.5355,-0.5356,0,-0.5165,-0.5181,-0.5192,-0.5202,-0.5209,-0.5225,-0.5235,-0.5235,-0.5246,-0.526,-0.5273,-0.529,-0.5305,-0.5335,-0.5341,-0.5357,-0.5356,-0.5376,-0.5359,-0.5359,-0.5358,-0.5358,-0.536,-0.538,-0.538,-0.5381,-0.5381,0,-0.5211,-0.5211,-0.5225,-0.524,-0.5252,-0.5264,-0.5276,-0.5284,-0.5286,-0.5298,-0.5317,-0.5328,-0.535,-0.5368,-0.5384,-0.5391,-0.5387,-0.5386,-0.5392,-0.5394,-0.5393,-0.5395,-0.5334,-0.5385,-0.5385,-0.5385,-0.5384,-0.5384,-0.5244,-0.5258,-0.5268,-0.5285,-0.5293,-0.5304,-0.5318,-0.5322,-0.5338,-0.5355,-0.5354,-0.5375,-0.5386,-0.5408,-0.5416,-0.5432,-0.5426,-0.5434,-0.5436,-0.5438,-0.5441,-0.5389,-0.5435,-0.5435,-0.5435,-0.5435,-0.5435,0,-0.529,-0.5296,-0.5311,-0.5327,-0.5341,-0.5334,-0.5346,-0.5358,-0.5376,-0.5387,-0.5401,-0.5423,-0.544,-0.5447,-0.5465,-0.5477,-0.5475,-0.5482,-0.5482,-0.5483,-0.5445,-0.5439,-0.5482,-0.5482,-0.5482,-0.5482,-0.5482,-0.5482,-0.5316,-0.534,-0.5342,-0.537,-0.5376,-0.5396,-0.5404,-0.5414,-0.5422,-0.5447,-0.5461,-0.5465,-0.5475,-0.5493,-0.5509,-0.5511,-0.5518,-0.5526,-0.5527,-0.5491,-0.5486,-0.5481,-0.5476,-0.5527,-0.5527,-0.5564,-0.5564,-0.5565]},{"header":{"parameterUnit":"m.s-1","parameterCategory":1,"la1":30.2991,"la2":30.254,"lo1":-89.0895,"lo2":-89.0444,"dy":0.0017,"dx":0.0017,"nx":28,"ny":28,"refTime":"2025-06-22T09:00:00:Z","depth":0,"parameterNumber":3,"parameterNumberName":"V-component_of_WINDS"},"data":[0,0,0,0,0,0,0,0,0,0,0,0,0,0,0,0,0,0,0,0,0,0,0,0,0,0,0,0,0,0,0,0,0,0,0,0,0,0,0,0,0,0,0,0,0,0,0,0,0,0,0,0,0,0,0,0,0,0,0.5751,0.5751,0,0.5732,0.5732,0.5732,0.5666,0.5664,0.5663,0.5661,0.5643,0.5644,0.5645,0,0,0,0,0,0,0,0,0,0,0,0,0,0.5731,0.5732,0.5751,0.5751,0.5751,0.5732,0.5732,0.5732,0.5666,0.5664,0.5662,0.5661,0.5643,0.5644,0.5645,0,0,0,0,0,0,0,0,0,0,0,0,0,0.5729,0.5732,0.5751,0.5716,0.5712,0.5732,0.5732,0.5732,0.5666,0.5664,0.5662,0.566,0.5643,0.5644,0.5645,0.5699,0,0,0.565,0.565,0,0,0,0,0,0,0,0,0.5729,0.573,0.5721,0.5718,0.5714,0.5699,0.5718,0.5721,0.5667,0.5684,0.5661,0.5659,0.5664,0.5663,0.5665,0.5698,0.5697,0.565,0.5651,0.5651,0.5651,0,0,0,0,0,0,0,0.573,0.573,0.5744,0.5721,0.5717,0.5701,0.5698,0.5718,0.5687,0.5682,0.5677,0.5676,0.5662,0.5664,0.5664,0.5697,0.565,0.5651,0.5652,0.5652,0.5772,0.5774,0,0,0,0,0,0,0.5735,0.5731,0.5744,0.5743,0.5716,0.5703,0.57,0.5706,0.5686,0.5681,0.5678,0.5673,0.5662,0.5662,0.5663,0.5723,0.5651,0.5652,0.5653,0.577,0.5772,0.5775,0,0,0,0,0,0,0.5734,0.5736,0.5745,0.5736,0.5736,0.5706,0.5713,0.5707,0.5709,0.5683,0.5677,0.5686,0.5661,0.5661,0.569,0.5722,0.5653,0.5654,0.5767,0.577,0.5774,0.5846,0,0,0,0,0,0,0.5734,0.5737,0.5757,0.5737,0.5736,0.5773,0.5715,0.5708,0.5711,0.5705,0.5689,0.5684,0.5659,0.5688,0.5691,0.5723,0.5655,0.5764,0.5768,0.5773,0.584,0.5851,0.586,0,0,0,0,0,0.5734,0.5778,0.5758,0.576,0.576,0.5775,0.5774,0.5744,0.5714,0.5734,0.5717,0.5684,0.5718,0.5692,0.5695,0.5727,0.5762,0.5767,0.5772,0.5836,0.5849,0.586,0,0,0,0,0,0,0.5803,0.5775,0.5752,0.5791,0.5786,0.5763,0.5787,0.5759,0.5762,0.5756,0.5719,0.5716,0.575,0.5741,0.5713,0.5777,0.5734,0.574,0.5782,0.5794,0.5804,0.5806,0.5656,0,0,0,0,0,0.5823,0.5837,0.5811,0.5848,0.5846,0.5818,0.5823,0.58,0.5792,0.579,0.5775,0.577,0.5779,0.5786,0.5793,0.5838,0.5834,0.5862,0.5872,0.5881,0.5886,0.591,0.5922,0.5792,0.5792,0.5792,0,0,0.5865,0.5851,0.5862,0.5862,0.5855,0.587,0.5816,0.5834,0.5845,0.5793,0.5819,0.5808,0.58,0.5837,0.5853,0.5831,0.5921,0.5887,0.5894,0.5895,0.5916,0.5929,0.5939,0.5796,0.5795,0.5795,0,0,0.5947,0.5938,0.5968,0.5962,0.5951,0.5932,0.5939,0.592,0.5911,0.5937,0.5897,0.591,0.5927,0.5922,0.5922,0.6002,0.5973,0.6006,0.6059,0.6082,0.6092,0.6101,0.613,0.614,0.6012,0.6012,0.6012,0,0.6,0.6021,0.5987,0.6007,0.6008,0.5961,0.5991,0.5987,0.598,0.5982,0.5957,0.5976,0.5967,0.6003,0.6022,0.6024,0.6031,0.6008,0.6093,0.6102,0.6109,0.6136,0.6147,0.6016,0.6015,0.6015,0.6015,0,0.6086,0.6101,0.6126,0.612,0.6124,0.6149,0.6119,0.6127,0.6103,0.6087,0.6113,0.6101,0.6104,0.6111,0.6088,0.6143,0.613,0.61,0.6056,0.6126,0.6151,0.6161,0.6022,0.602,0.6019,0.6018,0,0,0.6213,0.6187,0.6197,0.6193,0.6177,0.6188,0.6211,0.6214,0.6222,0.6218,0.6237,0.6252,0.6223,0.6223,0.62,0.622,0.6285,0.6187,0.6187,0.6206,0.6344,0.6367,0.6379,0.6264,0.6266,0.6268,0.6345,0,0.6292,0.6329,0.6298,0.6341,0.6354,0.6309,0.6329,0.6322,0.6307,0.6316,0.6299,0.631,0.6272,0.6272,0.629,0.6273,0.6312,0.6267,0.6282,0.6282,0.6285,0.6392,0.6416,0.649,0.6354,0.6356,0.6357,0,0.6389,0.6389,0.6433,0.6414,0.6418,0.6437,0.6436,0.6446,0.6437,0.6424,0.6424,0.6395,0.6416,0.6373,0.6402,0.6372,0.6376,0.6369,0.6371,0.6371,0.6324,0.6396,0.6512,0.6524,0.6372,0.6371,0.637,0,0.6477,0.6488,0.6515,0.6514,0.6492,0.6506,0.6498,0.6487,0.649,0.649,0.6492,0.6495,0.6497,0.65,0.6472,0.6443,0.6505,0.6459,0.6495,0.6496,0.651,0.651,0.663,0.6513,0.6513,0.6513,0.6512,0,0.6568,0.6597,0.6555,0.6572,0.6602,0.6567,0.6599,0.6586,0.6576,0.659,0.6551,0.6565,0.6528,0.6538,0.6517,0.6544,0.6545,0.6536,0.653,0.654,0.6541,0.6542,0.6536,0.6515,0.6515,0.6514,0.6514,0,0.6672,0.6645,0.6672,0.6649,0.6644,0.6668,0.6648,0.6663,0.6645,0.6663,0.6665,0.6637,0.6647,0.662,0.6626,0.6611,0.6651,0.6637,0.6654,0.665,0.6687,0.6684,0.6812,0.6827,0.6701,0.6702,0.6703,0,0.6732,0.6753,0.6732,0.6738,0.6732,0.6742,0.6745,0.6711,0.6716,0.6707,0.6723,0.673,0.6733,0.6752,0.6732,0.6736,0.6722,0.6766,0.6722,0.6731,0.6723,0.6722,0.6724,0.6776,0.6777,0.6778,0.6779,0,0.6841,0.6827,0.6832,0.6833,0.6837,0.6836,0.6833,0.684,0.6804,0.6811,0.682,0.6823,0.6829,0.6836,0.6836,0.6828,0.6798,0.6793,0.6802,0.6812,0.6821,0.6817,0.6679,0.6791,0.679,0.6789,0.6788,0.6788,0.6925,0.6941,0.6929,0.6936,0.693,0.6927,0.694,0.6923,0.693,0.6931,0.6911,0.6924,0.6914,0.6911,0.6906,0.6917,0.6896,0.6909,0.6912,0.6915,0.6922,0.6819,0.6916,0.6916,0.6916,0.6915,0.6915,0,0.7032,0.7022,0.7029,0.7025,0.703,0.7001,0.6995,0.7002,0.7014,0.7007,0.7011,0.7022,0.7028,0.7009,0.7013,0.7025,0.7011,0.7027,0.7026,0.7025,0.694,0.6932,0.7038,0.7038,0.7038,0.7038,0.7038,0.7038,0.7089,0.7115,0.7098,0.7121,0.711,0.7122,0.7122,0.7119,0.7113,0.7127,0.7132,0.7119,0.7107,0.7109,0.7114,0.7108,0.7112,0.7132,0.7122,0.7043,0.7031,0.7019,0.7012,0.7133,0.7133,0.7206,0.7207,0.7207]}]]